EHI
6 7 7 6 6 7 8 6 3 3 4 5 5 5 5 4 3 6 11 19 24 23 20 18 16 14 15 16 16 16 14 12 11 10 9 8 6 4 3 3 3 3 3
9 10 8 6 4 6 8 6 5 4 4 3 4 5 5 4 4 7 11 18 24 25 23 20 18 18 18 17 16 15 14 12 10 10 9 9 7 4 2 2 2 2 1
12 12 10 6 3 4 6 6 5 5 4 3 3 4 4 3 5 7 10 15 20 24 25 24 22 23 22 18 15 14 13 11 10 9 9 9 8 5 2 1 1 1 0
11 11 9 6 3 3 3 4 3 3 3 3 3 3 2 3 4 5 7 12 17 20 23 25 26 26 25 20 16 14 13 12 11 9 8 7 7 6 3 1 1 0 0
7 7 7 6 4 2 2 2 2 3 3 3 2 2 2 3 4 3 4 9 13 16 18 22 25 26 25 22 19 16 15 14 14 12 9 7 6 5 5 3 2 1 0
4 5 6 6 4 3 2 3 4 6 7 6 3 2 2 4 4 3 3 5 8 12 16 22 24 23 23 21 20 20 18 17 17 17 14 11 7 5 4 4 2 1 0
3 4 6 7 7 7 6 7 8 9 10 8 4 2 4 4 3 3 4 5 6 9 16 23 26 25 23 20 20 21 20 19 18 18 18 16 13 9 6 4 1 0 0
5 6 8 8 9 10 11 12 14 12 10 8 5 3 3 3 3 2 3 5 7 10 16 21 25 27 25 22 19 19 19 18 18 17 18 19 17 13 9 4 2 2 1
9 10 11 11 11 12 12 13 16 17 13 10 7 5 4 2 2 2 2 5 9 12 15 16 19 22 24 24 21 17 17 18 17 16 17 18 17 14 9 7 7 6 5
13 14 16 17 17 17 15 13 15 19 18 13 11 9 8 4 3 2 2 4 9 12 14 14 15 18 21 23 22 18 16 17 15 15 15 16 16 14 11 11 10 9 8
17 18 20 22 24 23 20 17 17 20 20 16 13 13 11 7 5 4 2 3 7 10 14 15 16 18 20 20 19 16 14 14 13 13 13 14 14 14 13 12 11 10 9
19 22 23 24 25 25 24 23 22 22 22 19 15 13 10 7 5 4 3 5 6 7 12 14 15 18 19 18 16 13 13 11 9 8 9 10 10 10 11 10 9 9 10
21 23 25 27 28 26 25 26 26 24 25 23 18 14 10 6 4 4 6 8 7 6 9 11 14 17 19 18 16 14 13 9 4 3 4 4 5 6 7 7 7 8 9
23 24 27 31 32 27 25 27 27 25 27 27 22 17 14 9 7 8 11 12 11 9 9 11 15 17 19 18 16 15 13 8 3 1 0 1 1 3 4 4 5 4 5
24 25 29 33 33 30 29 30 29 26 26 27 25 21 18 14 12 12 14 15 14 13 13 15 16 18 18 16 13 14 14 9 3 1 0 0 0 1 1 1 1 1 1
25 27 29 30 31 32 32 33 31 27 25 26 26 25 22 20 18 16 16 16 17 17 16 16 17 18 17 13 10 14 15 9 3 1 0 0 0 0 0 0 0 0 0
29 30 30 29 30 32 32 32 31 28 25 25 26 27 26 25 24 21 19 19 19 20 18 15 16 18 17 13 11 13 12 7 4 2 0 0 0 0 0 0 0 0 0
32 32 31 30 29 30 30 29 28 27 26 25 25 26 27 26 25 25 24 20 18 20 20 17 17 19 18 15 14 13 9 6 4 2 0 0 0 0 0 0 0 0 0
32 33 33 32 30 29 29 29 28 27 26 24 23 25 25 22 21 24 24 20 18 19 21 19 18 18 18 17 15 12 8 6 4 1 0 0 0 0 0 0 0 0 0
33 34 34 33 31 29 29 30 30 27 25 22 21 22 22 19 18 18 18 19 19 19 20 18 14 13 14 14 13 10 7 6 4 1 0 0 0 0 0 0 0 0 0
34 35 35 35 33 29 26 26 27 26 24 23 21 21 20 18 16 14 13 15 17 18 17 15 11 9 11 11 9 7 5 5 5 3 1 0 0 0 0 0 0 0 0
35 36 37 37 34 27 20 18 20 24 25 25 24 21 17 16 15 13 12 12 12 11 11 12 9 7 8 9 7 6 5 5 5 3 2 1 0 0 0 0 0 0 0
37 36 36 36 32 25 15 10 13 21 26 26 24 20 14 13 13 13 11 8 6 4 5 8 7 6 7 7 6 6 6 6 5 4 2 1 1 1 0 0 0 0 0
38 37 35 34 30 22 11 5 8 17 23 23 21 18 14 11 10 10 9 7 5 2 2 4 5 4 4 4 4 5 6 6 5 5 4 2 2 2 1 1 1 0 0
35 36 35 32 28 20 9 3 5 13 19 20 19 16 12 8 6 6 8 9 7 4 1 1 3 3 2 1 1 3 5 6 5 5 5 4 2 2 2 2 2 0 0
33 34 34 30 26 20 10 2 4 11 16 18 19 15 10 7 3 4 9 11 9 5 1 0 1 1 0 0 0 2 4 5 4 4 5 4 1 1 1 2 1 0 0
Wind_Speed
3 3 3 2 3 3 3 2 2 2 2 2 2 2 1 2 1 2 4 10 10 10 10 9 8 8 8 8 9 9 9 9 9 9 9 9 9 9 9 9 9 9 9
3 3 3 3 2 3 3 2 2 2 2 2 2 2 2 2 2 2 4 7 10 10 10 9 9 8 8 9 9 9 8 8 8 9 9 8 8 9 10 10 10 10 9
4 3 3 3 3 3 3 2 2 1 2 2 2 3 2 2 2 3 3 4 6 9 10 9 9 9 9 9 9 9 8 8 8 8 8 8 8 9 9 9 9 10 10
5 3 3 3 4 3 3 2 2 2 1 1 1 2 2 3 3 3 3 3 4 5 8 11 10 9 9 9 8 8 8 8 8 8 9 9 9 8 8 8 9 9 9
5 4 3 3 3 3 3 3 3 2 2 1 1 2 2 2 3 4 4 4 4 4 5 9 11 10 10 10 9 9 8 8 8 8 9 9 9 9 9 9 9 9 9
5 4 3 4 3 3 3 2 2 2 2 2 2 1 2 2 2 3 4 4 4 5 6 6 7 8 11 10 9 9 9 9 9 9 9 9 10 9 9 10 10 10 10
4 3 3 4 4 3 4 4 3 2 2 2 1 1 1 3 3 3 3 2 3 4 4 5 5 5 5 10 10 9 10 10 9 9 9 9 9 9 9 10 10 10 10
4 4 3 3 3 3 4 4 3 2 3 2 1 1 1 2 2 4 3 4 4 3 4 6 5 5 5 5 7 11 10 10 10 9 9 9 9 8 8 8 9 9 10
4 3 3 3 3 3 4 4 4 4 3 2 2 2 1 2 1 2 3 3 3 3 3 3 5 5 5 4 5 9 11 10 10 10 9 9 8 8 8 8 9 9 9
4 4 4 3 3 3 3 4 4 4 4 3 2 3 3 2 1 1 2 3 3 3 3 4 4 4 4 4 5 7 10 10 9 10 9 9 8 8 8 9 9 9 9
4 4 4 3 3 3 3 4 3 4 3 3 3 2 3 2 3 2 3 3 3 3 3 3 3 3 4 4 4 6 9 10 10 9 9 9 8 8 8 9 10 10 10
2 3 4 3 3 3 3 4 4 5 4 4 3 3 2 2 3 3 3 3 3 3 3 2 3 3 3 3 5 7 9 9 10 9 8 8 8 8 8 8 9 9 9
2 3 3 3 3 3 3 3 4 5 4 5 4 4 3 3 3 3 3 3 3 2 2 3 3 3 3 3 3 7 8 9 9 8 8 8 8 7 7 7 8 9 9
2 2 2 3 3 3 3 3 3 4 4 5 6 5 3 4 3 3 2 2 3 3 3 3 2 2 2 2 4 7 5 8 9 9 8 8 7 7 7 7 8 8 8
2 2 2 2 3 3 3 3 3 3 3 4 4 4 4 4 4 3 3 3 3 4 4 3 2 2 2 2 5 4 4 7 10 9 9 9 9 8 8 8 7 8 8
1 1 1 2 2 2 2 3 3 3 3 3 3 4 4 3 3 3 2 3 3 3 4 2 2 2 2 3 4 3 4 7 9 10 10 10 10 9 9 9 8 8 8
1 1 2 2 2 2 2 2 3 3 4 3 3 3 4 4 3 3 2 2 3 2 4 3 2 2 2 2 2 3 4 5 5 10 11 11 10 10 9 9 9 8 8
2 2 2 2 2 2 2 2 3 3 3 3 3 3 4 4 4 4 2 3 3 3 3 4 3 2 3 3 3 4 5 5 4 8 11 12 11 11 10 9 9 8 8
2 2 2 2 2 2 2 3 3 3 3 3 3 3 4 4 4 3 4 3 3 3 3 4 4 3 2 2 3 4 5 3 4 5 8 10 11 11 10 9 9 8 8
3 2 2 2 3 3 3 2 3 3 3 3 3 3 3 4 4 4 4 4 3 3 3 3 4 3 2 2 2 2 3 2 3 3 3 4 7 9 9 9 9 9 8
3 2 3 3 3 3 3 2 3 4 3 3 3 3 3 3 3 3 3 2 3 3 3 3 3 2 2 1 2 2 3 3 3 2 1 2 3 3 5 7 8 9 9
2 2 3 3 4 4 2 2 3 3 3 3 3 3 4 4 4 4 4 4 4 4 3 3 3 3 2 3 2 3 3 2 2 2 2 3 3 3 3 3 7 9 9
2 3 3 3 3 3 3 2 3 3 4 4 4 4 5 3 1 1 2 4 4 5 4 3 3 3 3 2 3 4 3 3 4 3 2 3 2 2 2 2 7 8 9
2 3 3 3 3 3 3 3 4 4 4 4 4 5 4 2 2 1 2 3 3 3 4 4 3 3 3 3 3 4 4 4 3 2 1 2 2 2 2 1 5 8 8
3 3 3 3 3 2 3 3 3 4 3 4 4 4 4 3 2 1 2 3 3 3 2 2 3 3 4 4 3 2 2 2 3 2 1 1 2 2 2 1 2 6 7
3 3 3 3 3 2 4 4 4 3 4 4 3 3 3 2 3 2 2 3 3 3 3 3 3 4 4 4 4 3 3 2 2 2 0 1 1 1 2 1 0 1 2
Wind_Direction
153 149 152 164 178 164 165 192 191 171 172 205 220 190 201 201 191 144 154 167 170 173 175 181 192 201 203 206 209 209 210 212 213 213 215 220 224 226 225 224 222 220 220
149 147 155 160 180 176 173 183 189 174 177 198 210 198 198 195 184 168 159 165 173 176 179 184 192 201 205 208 212 214 217 218 218 219 220 221 224 226 229 228 225 225 225
151 156 163 165 182 186 176 174 194 176 199 209 206 206 193 188 185 188 166 164 173 184 188 189 194 200 206 213 216 220 221 221 220 221 222 221 224 227 230 229 228 229 228
166 168 179 177 180 181 173 173 189 195 213 222 216 227 198 184 196 187 185 183 177 178 190 198 199 203 210 217 220 222 223 224 223 222 224 222 222 226 229 230 230 230 230
172 182 183 177 181 179 180 194 169 188 216 236 236 216 215 210 202 207 198 198 187 178 179 194 201 205 210 216 220 220 222 224 223 223 224 224 225 226 228 229 230 232 232
178 184 185 178 186 183 183 189 179 202 213 230 256 237 230 219 211 214 214 202 194 195 190 183 191 208 213 216 218 220 223 226 225 225 226 227 229 231 229 228 230 232 233
178 184 194 173 188 189 191 188 184 206 219 217 253 274 256 238 216 212 206 207 208 203 187 183 190 193 198 211 219 222 226 227 227 227 228 229 231 233 231 231 230 230 232
184 191 184 192 186 186 184 192 194 209 231 215 199 240 265 281 258 219 203 208 212 208 199 200 202 197 199 185 206 218 224 227 230 229 228 229 231 232 231 232 230 231 234
179 188 184 200 198 203 190 194 203 212 218 231 212 205 208 233 282 260 232 220 211 213 214 205 209 200 206 191 192 207 216 222 226 229 230 232 231 231 232 234 235 233 235
183 189 191 202 204 209 203 209 202 213 213 224 232 227 223 203 209 255 260 235 226 219 224 228 219 200 204 193 190 188 199 210 219 228 231 233 234 233 236 237 238 239 239
189 197 198 198 200 213 217 219 212 217 222 226 230 227 233 225 223 216 246 244 246 231 222 222 219 208 205 201 186 193 196 201 210 221 228 233 235 236 238 241 243 244 244
197 198 199 194 202 215 220 224 220 223 225 234 241 241 232 229 232 225 235 236 235 239 228 226 228 213 205 202 194 189 194 197 204 213 221 227 234 236 238 240 243 245 247
205 199 207 195 209 218 223 224 222 228 231 235 237 244 246 247 243 235 231 242 249 248 237 234 230 215 209 183 180 187 194 192 198 205 212 220 226 231 234 239 242 246 249
213 203 201 194 206 222 231 223 232 227 224 231 241 246 254 258 255 240 227 228 254 255 239 240 231 214 201 169 187 185 190 193 200 207 210 214 220 225 232 239 241 245 249
238 175 189 201 208 219 227 229 237 238 231 228 238 243 246 258 257 252 240 223 227 245 250 237 230 223 204 185 186 191 192 195 201 209 215 218 221 224 228 231 235 239 244
265 206 202 220 223 226 231 233 246 238 233 233 226 229 236 254 260 255 240 238 239 241 251 245 237 229 220 230 207 204 207 207 209 211 216 218 220 223 226 228 232 235 239
252 238 234 234 239 245 250 250 257 252 241 238 241 232 234 240 255 261 251 240 241 239 252 266 259 258 247 235 223 231 228 213 214 215 216 217 219 222 225 227 229 232 236
246 249 245 249 255 255 254 257 264 265 256 250 248 247 250 247 248 258 261 256 249 237 244 262 262 260 251 238 229 238 245 231 224 217 217 218 219 221 223 225 227 228 229
239 252 243 248 259 261 251 250 253 261 260 258 251 245 251 255 256 255 253 258 260 259 241 248 256 246 245 241 244 254 256 247 250 226 218 222 223 223 223 222 224 224 224
231 235 245 248 253 259 254 246 248 257 258 261 259 255 255 253 252 257 255 256 261 267 259 256 258 258 241 236 232 258 269 258 258 259 234 229 223 222 224 220 219 219 220
236 235 242 247 249 247 255 258 253 255 260 265 265 261 260 252 248 252 258 262 262 258 259 258 261 268 262 259 248 259 266 268 263 247 248 251 223 217 221 223 218 216 217
246 238 241 251 255 260 263 269 278 274 272 268 269 266 261 247 234 234 241 244 249 248 252 257 262 261 266 261 255 259 263 272 268 238 248 258 228 219 220 213 209 211 214
244 248 251 254 259 264 260 259 267 271 265 260 259 260 268 262 251 241 236 236 250 256 250 249 260 266 268 269 264 262 256 257 260 255 243 258 239 237 243 222 196 200 208
252 253 254 253 253 264 246 246 253 254 258 261 258 253 250 240 249 288 277 259 254 254 249 246 248 260 273 271 258 254 255 256 262 256 213 253 267 270 281 240 198 194 199
256 251 256 252 252 256 248 247 250 263 259 258 253 249 236 222 197 225 250 263 269 273 265 257 251 245 250 257 266 277 276 267 273 256 192 243 280 296 276 237 216 202 209
269 269 261 260 256 245 238 239 245 266 271 267 245 234 231 195 188 216 231 249 258 267 277 276 260 250 246 245 237 226 240 257 277 274 209 225 273 306 299 287 160 214 214